sat.trackr.live / text

‹ back to catalog

YAOGAN-41

NORAD 58582 · 2023-197A

PAYLOAD ACTIVE UNKNOWN

§ Identity

Operator
Country
PRC
Launch date
2023-12-15
Launch site
WSC
Launch vehicle
Mass (kg)
RCS (m²)

Purposes: comms

External: N2YO · Heavens-Above · Gunter

§ Orbital elements

Epoch: 2026-09-19T18:21:17.285760Z

Period
1,436.09 min
Inclination
2.9659°
Eccentricity
0.0013690
Mean motion
1.00272190 rev/d
Perigee alt
35,728.8 km
Apogee alt
35,844.2 km
Semi-major
42,164.6 km
B*
0.0000e+0
RAAN
314.7689°
Arg perigee
211.4373°
Mean anomaly
230.9766°
Rev number
1,027

§ Raw data

YAOGAN-411 58582U 23197A   26262.76478340 -.00000366  00000+0  00000+0 0  99912 58582   2.9659 314.7689 0013690 211.4373 230.9766  1.00272190 10274

JSON: /api/v1/satellites/58582 · /tle

For live sub-satellite position, see the globe view (requires WebGL).

§ Visibility from observer

Set your observer location to see the next 7 days of passes ≥ 10°. The values pass through the URL so the page stays shareable.

No JS? Fill the form by hand. The geolocation button needs JavaScript.